sat.trackr.live / text

‹ back to catalog

STARLINK-30399

NORAD 57951 · 2023-148S

PAYLOAD ACTIVE UNKNOWN

§ Identity

Operator
Country
US
Launch date
2023-09-25
Launch site
AFWTR
Launch vehicle
Mass (kg)
RCS (m²)

Purposes: comms

External: N2YO · Heavens-Above · Gunter

§ Orbital elements

Epoch: 2026-05-25T01:58:37.929216Z

Period
93.85 min
Inclination
53.1619°
Eccentricity
0.0001163
Mean motion
15.34387905 rev/d
Perigee alt
461.9 km
Apogee alt
463.5 km
Semi-major
6,840.9 km
B*
1.7620e-5
RAAN
29.0524°
Arg perigee
80.2491°
Mean anomaly
279.8643°
Rev number
15,012

§ Raw data

STARLINK-303991 57951U 23148S   26145.08238344  .00000219  00000+0  17620-4 0  99962 57951  53.1619  29.0524 0001163  80.2491 279.8643 15.34387905150124

JSON: /api/v1/satellites/57951 · /tle

For live sub-satellite position, see the globe view (requires WebGL).

§ Visibility from observer

Set your observer location to see the next 7 days of passes ≥ 10°. The values pass through the URL so the page stays shareable.

No JS? Fill the form by hand. The geolocation button needs JavaScript.